Tracking 30743 objects as of 21-Jun-2025
HD Live streaming from Space Station
objects crossing your sky now

NOAA 16 DEB

Track NOAA 16 DEB now!
10-day predictions


NORAD ID: 41071
Int'l Code: 2000-055AE
Perigee: 803.9 km
Apogee: 815.4 km
Inclination: 98.8 °
Period: 100.9 minutes
Semi major axis: 7180 km
RCS: Unknown
Launch date: September 21, 2000
Source: United States (US)
Launch site: AIR FORCE WESTERN TEST RANGE (AFWTR)

Note: This is SATELLITE DEBRIS
Your satellite tracking list
Your tracking list is empty




NASA's NSSDC Master Catalog

Two Line Element Set (TLE):
1 41071U 00055AE  25171.26573650  .00002696  00000-0  11309-2 0  9992
2 41071  98.8141 271.0246 0008025 331.4673  28.6066 14.26788182494215
Source of the keplerian elements: AFSPC